Regional Weather Roundup
Issued by NWS

Home | Current Version | Previous Version | Text Only | Print | Product List | Glossary On
Versions: 1 2 3 4 5 6 7 8 9 10 11 12 13 14 15 16 17 18 19 20 21 22 23 24 25 26 27 28 29 30 31 32 33 34 35 36 37 38 39 40 41 42 43 44 45 46 47 48 49 50
000
ASUS43 KMPX 272201
RWRMN
WEATHER ROUNDUP FOR MINNESOTA
NATIONAL WEATHER SERVICE TWIN CITIES/CHANHASSEN MN
400 PM CST THU NOV 27 2014


NOTE: "FAIR" INDICATES FEW OR NO CLOUDS BELOW 12,000 FEET WITH NO
SIGNIFICANT WEATHER AND/OR OBSTRUCTIONS TO VISIBILITY. N/A MEANS
CURRENT SKY AND/OR WEATHER CONDITIONS ARE NOT AVAILABLE.

MNZ060>063-068>070-272300-
   Twin Cities Metro

CITY           SKY/WX    TMP DP  RH WIND       PRES   REMARKS
TWIN CITIES    PTCLDY     8  -4  58 S5        30.42F WCI   0
ST PAUL        CLEAR      9  -4  55 SW3       30.44F
CRYSTAL        CLEAR     10  -5  50 CALM      30.40F
BLAINE         CLEAR     10  -2  56 S5        30.41F WCI   2
LAKEVILLE      CLEAR      3  -6  66 CALM      30.42F
EDEN PRAIRIE   CLEAR      7  -4  60 S8        30.41F WCI  -6
SOUTH ST PAUL  CLEAR     10  -5  50 CALM      30.43F
LAKE ELMO      FAIR      10  -4  52 CALM      30.42F
$$
MNZ001>005-007-008-013>017-022>024-027-028-272300-
   Northwest Minnesota

CITY           SKY/WX    TMP DP  RH WIND       PRES   REMARKS
BEMIDJI        MOCLDY     4  -6  63 E3        30.29F
HALLOCK        MOCLDY     5  -2  72 S15       30.30F WCI -13
ROSEAU         PTCLDY     5  -4  66 S7        30.30F WCI  -7
WARROAD        MOCLDY     3  -6  66 S5        30.31F WCI  -6
THIEF RVR FALL MOCLDY     1  -4  78 S9        30.30F WCI -14
CROOKSTON      MOCLDY     5  -2  72 S12       30.33F WCI -11
FOSSTON        MOCLDY     3  -6  66 CALM      30.29F
DETROIT LAKES  CLEAR      9  -2  61 S12       30.28F WCI  -6
MOORHEAD       FAIR       9   1  72 S10       30.33F WCI  -6
PARK RAPIDS    PTCLDY     8  -5  55 S8        30.28F WCI  -4
MAHNOMEN       FAIR       7  -3  63 S8        30.29F WCI  -5
$$
MNZ006-009>011-018-025>026-272300-
   North Central Minnesota

CITY           SKY/WX    TMP DP  RH WIND       PRES   REMARKS
BAUDETTE       PTCLDY     3  -6  66 CALM      30.31S
FLAG ISLAND    MOCLDY     1  -6  71 S6        30.30F WCI -10
INTL FALLS     CLEAR      2  -7  66 CALM      30.33S
WASKISH        PTCLDY     1  -6  71 CALM      30.33S
BIG FORK       CLEAR      3  -6  66 S3        30.32S
LONGVILLE      PTCLDY     7  -6  56 CALM      30.33R
GRAND RAPIDS   CLEAR      5  -8  56 CALM      30.30F
CRANE LAKE     CLEAR      1  -8  66 CALM      30.35F
ORR            CLEAR      3  -9  55 CALM      30.29F
COOK           CLEAR      3  -8  60 CALM      30.31F
WALKER         FAIR       4  -4  69 CALM      30.31S
$$
MNZ012-019>021-037-272300-
   Northeast Minnesota

CITY           SKY/WX    TMP DP  RH WIND       PRES   REMARKS
DULUTH         CLEAR      6  -8  52 W3        30.31F
ELY            CLEAR      1  -9  60 CALM      30.31F
HIBBING        CLEAR      5  -8  55 CALM      30.31F
EVELETH        CLEAR      5  -6  61 CALM      30.32F
DULUTH HARBOR  CLEAR     10  -4  52 CALM      30.41F
TWO HARBORS    CLEAR     12  -2  52 W3        30.33F
SILVER BAY     CLEAR     10  -6  48 CALM      30.32F
GRAND MARAIS     N/A      9  -4  55 NW5       30.38F WCI   1
G MARAIS ARPRT CLEAR      0  -8  71 W3        30.26F
$$
MNZ029>031-032-039>041-046>048-054>057-064-272300-
   West Central Minnesota

CITY           SKY/WX    TMP DP  RH WIND       PRES   REMARKS
FERGUS FALLS   PTCLDY     5  -6  61 S12       30.35F WCI -11
WHEATON        PTCLDY     3  -4  72 SE15      30.34F WCI -15
MORRIS         PTCLDY     3  -4  72 SE13      30.33F WCI -14
ALEXANDRIA     PTCLDY     6  -4  63 S9        30.32F WCI  -8
ELBOW LAKE     CLOUDY     4  -4  69 S12       30.32F WCI -12
WADENA         PTCLDY     7  -4  61 S8        30.30F WCI  -6
GLENWOOD       MOCLDY     3  -2  78 S8        30.34F WCI -10
APPLETON       PTCLDY     7  -2  66 SE10      30.34F WCI  -8
BENSON         MOCLDY     3  -2  78 S10       30.35F WCI -12
ORTONVILLE     MOCLDY     3  -6  66 SE13      30.31F WCI -14
MADISON        FAIR       9   0  66 SE12      30.34F WCI  -6
WILLMAR        FAIR       5  -4  66 SE8       30.38S WCI  -8
$$
MNZ033>034-036-042>043-049>051-058-059-272300-
   Central Minnesota

CITY           SKY/WX    TMP DP  RH WIND       PRES   REMARKS
ST CLOUD       CLEAR      7  -4  60 CALM      30.39F
SAUK CENTRE    FAIR       3  -5  68 SE6       30.36S WCI  -8
PAYNESVILLE    PTCLDY     3  -6  66 E5        30.38S WCI  -6
AITKIN         CLEAR     10  -6  48 S5        30.33F WCI   2
PINE RIVER     PTCLDY     9  -4  56 S6        30.35S WCI  -1
BRAINERD       PTCLDY     6  -6  57 S9        30.35F WCI  -8
STAPLES        FAIR       7  -8  51 S7        30.32F WCI  -5
LONG PRAIRIE   FAIR       5  -4  66 SE8       30.34F WCI  -8
LITTLE FALLS   CLEAR      7  -8  51 S3        30.37F
LITCHFIELD     CLEAR      7  -2  66 SE5       30.39F WCI  -2
BUFFALO        CLEAR      6  -4  61 SW3       30.41F
MAPLE LAKE     CLEAR      7  -3  65 CALM      30.40F
$$
MNZ037-044-045-052-053-272300-
   East Central Minnesota

CITY           SKY/WX    TMP DP  RH WIND       PRES   REMARKS
PRINCETON      CLEAR      9  -6  52 CALM      30.39F
MORA             N/A    N/A N/A N/A MISG        N/A
CAMBRIDGE      CLEAR     10  -2  56 S3        30.39S
RUSH CITY      CLEAR      8  -5  57 CALM      30.40F
MOOSE LAKE     CLEAR     10  -8  44 CALM      30.34F
HINCKLEY       FAIR      10  -2  56 CALM      30.38F
CLOQUET        CLEAR      7  -8  51 SW3       30.33F
MCGREGOR       CLEAR      9  -4  56 S3        30.34F
$$
MNZ071>073-080-081-089-090-097-098-272300-
   Southwest Minnesota

CITY           SKY/WX    TMP DP  RH WIND       PRES   REMARKS
MONTEVIDEO     PTCLDY     5  -2  72 S10       30.36F WCI -10
GRANITE FALLS  CLEAR      3  -4  72 E6        30.38F WCI  -8
CANBY          CLOUDY     8   0  72 SE9       30.33F WCI  -6
MARSHALL       CLOUDY     7  -2  66 SE9       30.32F WCI  -7
REDWOOD FALLS  CLEAR      0  -6  76 SE8       30.38F WCI -14
OLIVIA         CLEAR      5  -4  66 SE7       30.38S WCI  -7
PIPESTONE      CLOUDY    10   0  61 SE12      30.26F WCI  -4
WINDOM         PTCLDY     3  -2  78 SE7       30.34F WCI  -9
WORTHINGTON    CLOUDY     7  -2  66 SE10      30.31F WCI  -8
JACKSON        PTCLDY     3  -4  72 SE7       30.35F WCI  -9
TRACY          CLOUDY     9   0  67 SE10      30.32F WCI  -5
SLAYTON        CLOUDY    10   1  68 SE13      30.30F WCI  -6
$$
MNZ065>067-074>077-082>085-091>093-272300-
   South Central Minnesota

CITY           SKY/WX    TMP DP  RH WIND       PRES   REMARKS
MANKATO        CLEAR      1  -9  60 SE7       30.40F WCI -11
NEW ULM        CLEAR      0  -6  78 S7        30.40F WCI -13
ST JAMES       CLEAR      0  -6  78 E7        30.40F WCI -13
FAIRMONT       CLEAR      0  -8  71 E5        30.38F WCI -10
GLENCOE        CLEAR      5  -2  72 CALM      30.39F
FARIBAULT      CLEAR      3  -6  66 S3        30.42F
OWATONNA       CLEAR     -2  -9  71 S5        30.41F WCI -12
WASECA         CLEAR     -4 -13  65 CALM      30.43F
ALBERT LEA     FAIR       1  -6  71 CALM      30.41R
$$
MNZ078>079-086>088-094>096-272300-
   Southeast Minnesota

CITY           SKY/WX    TMP DP  RH WIND       PRES   REMARKS
ROCHESTER      CLEAR      4  -5  66 W5        30.39F WCI  -5
RED WING         N/A     10  -4  52 CALM      30.43F
STANTON        CLEAR      6  -4  63 CALM      30.41F
DODGE CENTER   PTCLDY     1  -6  71 CALM      30.39S
WINONA         CLEAR     12   1  62 W5        30.46F WCI   4
AUSTIN         CLEAR      1  -6  71 CALM      30.41S
PRESTON        CLEAR      5  -4  66 NW3       30.40F
$$
ABBREVIATIONS USED IN REMARKS
   TC - TEMPERATURES IN CELSIUS
  WCI - WIND CHILL INDEX
   HX - HEAT INDEX
  VSB - VISIBILITY
$$


USA.gov is the U.S. government's official web portal to all federal, state and local government web resources and services.